Simultaneous Nadir Overpasses (SNOs) Predictions

Prediction of SNOs between GOES-15 and TERRA Satellite Orbit:

Table of predicted SNOs for the next 14.0 days since TLE Epoch: 3/7/2025
Index Date Time (GOES-15) GOES-15 Lat,Lon TERRA Lat,Lon Distance(km) Time Diff (sec)
1 03/08/2025 05:07:36 -0.03, 61.33 -0.92, 65.70 495.74 80
2 03/08/2025 17:27:18 0.04, 61.29 -0.06, 60.90 44.34 80
3 03/10/2025 17:05:52 0.04, 61.29 0.93, 65.42 470.08 80
4 03/11/2025 05:25:26 -0.04, 61.33 0.09, 60.66 75.97 80
5 03/13/2025 05:09:19 -0.04, 61.32 -0.87, 65.19 439.24 80
6 03/13/2025 17:29:00 0.05, 61.27 -0.16, 60.40 99.88 80
7 03/15/2025 17:07:33 0.04, 61.27 0.83, 64.92 414.99 80
8 03/16/2025 05:27:06 -0.05, 61.33 0.17, 60.16 131.85 80
9 03/18/2025 05:10:58 -0.05, 61.33 -0.73, 64.70 382.90 80
10 03/18/2025 17:30:39 0.06, 61.27 -0.23, 59.90 155.70 80
11 03/20/2025 17:09:10 0.06, 61.29 0.70, 64.44 357.91 80
12 03/21/2025 05:28:44 -0.07, 61.35 0.27, 59.68 189.98 80
